Find Starlink 4208

NORAD ID: 52844 Int'l Des: 2022-062 Owner: SPXS Country: US Constellation: starlink operational
LEOCIRCULAR

リアルタイム位置

3D地球を読み込み中...

Starlink 4208について

説明を読み込み中...

次回通過

Passes for default location (London). Set your location on the main map for personalized predictions.

高度履歴

Loading altitude history...

軌道要素

1 52844U 22062Q 26124.77450073 .00000015 00000-0 19000-4 0 9993
2 52844 53.2170 142.3470 0001095 81.5864 278.5253 15.08830352214252
Epoch: May 4, 2026 • Age: 10 hours

現在のステータス

高度 541.8 km
速度 7.59 km/s
衛星直下点 -6.66°S, 148.81°W
打ち上げ日 Jun 17, 2022
運用期間 3.8 years
タイプ internet

技術仕様

分類 Payload
質量 297.00 kg
乾燥質量 275.00 kg
総質量 297.00 kg
長さ 0.20 m
直径 2.80 m
スパン 9.00 m
形状 Box + pan
製造者 SPXS
バスタイプ Starlink
フェーズステータス In Orbit
所有者/国 SPXS/US

Most Searched